sat.trackr.live / text

‹ back to catalog

STARLINK-3145

NORAD 49455 · 2021-104AZ

PAYLOAD ACTIVE UNKNOWN

§ Identity

Operator
Country
US
Launch date
2021-11-13
Launch site
AFETR
Launch vehicle
Mass (kg)
RCS (m²)

Purposes: comms

External: N2YO · Heavens-Above · Gunter

§ Orbital elements

Epoch: 2026-05-24T23:16:38.458848Z

Period
95.44 min
Inclination
53.2156°
Eccentricity
0.0000971
Mean motion
15.08836069 rev/d
Perigee alt
539.1 km
Apogee alt
540.4 km
Semi-major
6,917.9 km
B*
4.5233e-5
RAAN
236.6855°
Arg perigee
80.9391°
Mean anomaly
279.1711°
Rev number
25,029

§ Raw data

STARLINK-31451 49455U 21104AZ  26144.96988957  .00000432  00000+0  45233-4 0  99922 49455  53.2156 236.6855 0000971  80.9391 279.1711 15.08836069250295

JSON: /api/v1/satellites/49455 · /tle

For live sub-satellite position, see the globe view (requires WebGL).

§ Visibility from observer

Set your observer location to see the next 7 days of passes ≥ 10°. The values pass through the URL so the page stays shareable.

No JS? Fill the form by hand. The geolocation button needs JavaScript.